Regional Weather Roundup
Issued by NWS

Home | Current Version | Previous Version | Text Only | Print | Product List | Glossary On
Versions: 1 2 3 4 5 6 7 8 9 10 11 12 13 14 15 16 17 18 19 20 21 22 23 24 25 26 27 28 29 30 31 32 33 34 35 36 37 38 39 40 41 42 43 44 45 46 47 48 49 50
000
ASUS43 KMPX 292301
RWRMN
WEATHER ROUNDUP FOR MINNESOTA
NATIONAL WEATHER SERVICE TWIN CITIES/CHANHASSEN MN
600 PM CDT SUN MAR 29 2015


NOTE: "FAIR" INDICATES FEW OR NO CLOUDS BELOW 12,000 FEET WITH NO
SIGNIFICANT WEATHER AND/OR OBSTRUCTIONS TO VISIBILITY. N/A MEANS
CURRENT SKY AND/OR WEATHER CONDITIONS ARE NOT AVAILABLE.

MNZ060>063-068>070-300000-
   Twin Cities Metro

CITY           SKY/WX    TMP DP  RH WIND       PRES   REMARKS
TWIN CITIES    MOSUNNY   52  28  39 NW25G33   29.82R
ST PAUL        SUNNY     52  26  36 NW30G38   29.82R
CRYSTAL        SUNNY     53  26  35 NW18G39   29.82R
BLAINE         MOSUNNY   54  27  35 W30G38    29.81R
LAKEVILLE      SUNNY     48  28  46 NW31G39   29.81R
EDEN PRAIRIE   SUNNY     52  27  38 NW25G38   29.82R
SOUTH ST PAUL  MOSUNNY   53  26  34 NW15G33   29.81R
LAKE ELMO      FAIR      52  30  43 NW21G31   29.81R
$$
MNZ001>005-007-008-013>017-022>024-027-028-300000-
   Northwest Minnesota

CITY           SKY/WX    TMP DP  RH WIND       PRES   REMARKS
BEMIDJI        MOSUNNY   45  27  49 NW21      29.84R
HALLOCK        SUNNY     52  32  46 NW14      29.85S
ROSEAU         MOSUNNY   48  32  53 NW15G22   29.82R
WARROAD        PTSUNNY   48  30  49 NW13G18   29.80S
THIEF RVR FALL SUNNY     48  30  49 NW20G25   29.87S
CROOKSTON      MOSUNNY   54  28  37 NW20G28   29.88S
FOSSTON        SUNNY     48  27  43 NW22G28   29.88R
DETROIT LAKES  SUNNY     48  28  46 NW21G26   29.90R
MOORHEAD       MOSUNNY   55  19  24 NW23G29   29.91R
PARK RAPIDS    MOSUNNY   50  26  39 NW26G36   29.84R
MAHNOMEN       MOCLDY    48  29  48 NW22G32   29.87S
$$
MNZ006-009>011-018-025>026-300000-
   North Central Minnesota

CITY           SKY/WX    TMP DP  RH WIND       PRES   REMARKS
BAUDETTE       MOSUNNY   46  27  47 NW21      29.77R
FLAG ISLAND    SUNNY     43  27  52 NW21      29.77R
INTL FALLS     CLOUDY    43  26  51 NW17G26   29.74R
WASKISH        PTSUNNY   46  30  53 W13G22    29.80R
BIG FORK       MOSUNNY   46  25  42 NW9G23    29.78R
LONGVILLE      MOSUNNY   46  27  46 NW12G23   29.82R
GRAND RAPIDS   MOSUNNY   45  27  49 NW18G31   29.77R
ORR            CLOUDY    41  27  56 NW18G24   29.71R
COOK           CLOUDY    43  28  56 W13G22    29.74R
WALKER         FAIR      45  27  48 NW12G20   29.82R
$$
MNZ012-019>021-037-300000-
   Northeast Minnesota

CITY           SKY/WX    TMP DP  RH WIND       PRES   REMARKS
DULUTH         MOSUNNY   43  27  53 NW22G32   29.71R
ELY            CLOUDY    39  28  65 NW13G25   29.68R
HIBBING        MOSUNNY   44  28  53 NW22G29   29.72R
EVELETH        MOSUNNY   43  28  56 NW22G28   29.73R
DULUTH HARBOR  FAIR      45  30  57 NW22G32   29.75R
TWO HARBORS    PTSUNNY   46  34  61 NW16G25   29.67R
SILVER BAY     MOSUNNY   43  32  65 NW14G24   29.65R
GRAND MARAIS     N/A     42  30  62 NW16G33   29.57R
G MARAIS ARPRT MOSUNNY   36  27  69 NW13G33   29.56R HAZE
$$
MNZ029>031-032-039>041-046>048-054>057-064-300000-
   West Central Minnesota

CITY           SKY/WX    TMP DP  RH WIND       PRES   REMARKS
FERGUS FALLS   PTSUNNY   52  23  32 NW21G26   29.93R
WHEATON        MOSUNNY   54  25  32 NW24G30   29.96R
MORRIS         PTSUNNY   55  27  33 NW25G37   29.92R
ALEXANDRIA     MOSUNNY   51  26  37 NW22G31   29.90R
ELBOW LAKE     PTSUNNY   49  27  42 NW17G28   29.91R
WADENA         SUNNY     48  27  43 NW22G35   29.87R
GLENWOOD       SUNNY     50  27  40 NW22G32   29.90R
APPLETON       MOSUNNY   55  25  30 NW24G32   29.95R
BENSON         MOSUNNY   54  21  28 N25G32    29.92R
ORTONVILLE     MOSUNNY   55  23  28 NW15G28   29.96R
MADISON        MOSUNNY   55  21  26 NW21G30   29.95S
WILLMAR        FAIR      52  28  40 NW25G33   29.92R
$$
MNZ033>034-036-042>043-049>051-058-059-300000-
   Central Minnesota

CITY           SKY/WX    TMP DP  RH WIND       PRES   REMARKS
ST CLOUD       MOSUNNY   50  27  40 NW26G36   29.84R
SAUK CENTRE    FAIR      50  27  40 NW20G37   29.88R
PAYNESVILLE    SUNNY     48  28  47 W21G33    29.89R
AITKIN         PTSUNNY   48  28  46 NW13G25   29.80R
PINE RIVER     MOSUNNY   46  28  49 NW20      29.86R
BRAINERD       MOSUNNY   49  24  37 NW25G37   29.83R
STAPLES        MOSUNNY   46  27  46 NW20G29   29.86R
LONG PRAIRIE   PTSUNNY   50  28  43 NW24G32   29.87R
LITTLE FALLS   MOSUNNY   50  25  37 NW15G26   29.85R
LITCHFIELD     MOSUNNY   52  28  40 NW6G26    29.89R
BUFFALO        MOSUNNY   52  27  37 W22G30    29.86R
MAPLE LAKE     SUNNY     51  30  43 NW21G35   29.87R
$$
MNZ037-044-045-052-053-300000-
   East Central Minnesota

CITY           SKY/WX    TMP DP  RH WIND       PRES   REMARKS
PRINCETON      MOSUNNY   54  27  35 NW17G31   29.83R
MORA           SUNNY     48  27  43 NW21G31   29.82R
CAMBRIDGE      MOSUNNY   54  34  47 W20G29    29.79R
RUSH CITY      MOSUNNY   49  28  42 NW21G28   29.80R
MOOSE LAKE     MOSUNNY   46  25  42 NW18G31   29.75R
HINCKLEY       FAIR      48  28  46 NW18G35   29.78R
CLOQUET        MOSUNNY   46  25  42 NW24G35   29.73R
MCGREGOR       PTSUNNY   46  28  49 NW16G29   29.79R
$$
MNZ071>073-080-081-089-090-097-098-300000-
   Southwest Minnesota

CITY           SKY/WX    TMP DP  RH WIND       PRES   REMARKS
MONTEVIDEO     MOSUNNY   57  27  30 N28G37    29.94R
GRANITE FALLS  MOSUNNY   55  25  31 NW25G35   29.96R
CANBY          SUNNY     56  22  27 NW26G36   29.98R
MARSHALL       SUNNY     55  21  26 N23G40    29.96R
REDWOOD FALLS  MOSUNNY   55  26  32 NW22G39   29.92R
OLIVIA         MOSUNNY   52  30  43 NW23G39   29.91R
PIPESTONE      SUNNY     55  18  22 NW24G39   29.98R
WINDOM         SUNNY     55  19  24 NW28G37   29.94R
WORTHINGTON    SUNNY     57  19  23 NW24G36   29.98R
JACKSON        SUNNY     55  18  22 NW33G44   29.95R
TRACY          MOSUNNY   57  26  30 NW23G31   29.95R
SLAYTON        SUNNY     54  16  22 NW26G36   29.97R
$$
MNZ065>067-074>077-082>085-091>093-300000-
   South Central Minnesota

CITY           SKY/WX    TMP DP  RH WIND       PRES   REMARKS
MANKATO        MOSUNNY  N/A N/A N/A NW23G36   29.89R
NEW ULM        MOSUNNY   54  28  37 NW29G36   29.89R
ST JAMES       SUNNY     55  27  33 NW25      29.93R
FAIRMONT       SUNNY     55  19  24 NW29G36   29.91R
GLENCOE        MOSUNNY   52  33  48 NW22G35   29.87R
FARIBAULT      SUNNY     52  30  43 NW17G29   29.86R
OWATONNA       MOSUNNY   50  30  46 NW30G39   29.86R
WASECA         SUNNY     52  36  54 NW28G38   29.88R
ALBERT LEA     SUNNY     54  30  40 NW20G35   29.87R
$$
MNZ078>079-086>088-094>096-300000-
   Southeast Minnesota

CITY           SKY/WX    TMP DP  RH WIND       PRES   REMARKS
ROCHESTER      SUNNY     47  31  53 NW26G36   29.81R
RED WING       MOSUNNY   54  27  35 NW14G26   29.79R
STANTON        SUNNY     51  31  46 NW23G33   29.82R
DODGE CENTER   SUNNY     48  30  49 NW24G33   29.83R
WINONA         MOSUNNY   54  32  43 NW21G30   29.77R
AUSTIN         SUNNY     50  32  50 NW26G37   29.84R
PRESTON        SUNNY     47  31  55 NW29G36   29.81R
$$
ABBREVIATIONS USED IN REMARKS
   TC - TEMPERATURES IN CELSIUS
  WCI - WIND CHILL INDEX
   HX - HEAT INDEX
  VSB - VISIBILITY
$$


USA.gov is the U.S. government's official web portal to all federal, state and local government web resources and services.